Regional Weather Roundup
Issued by NWS Green Bay, WI

Home | Current Version | Previous Version | Text Only | Print | Product List | Glossary On
Versions: 1 2 3 4 5 6 7 8 9 10 11 12 13 14 15 16 17 18 19 20 21 22 23 24 25 26 27 28 29 30 31 32 33 34 35 36 37 38 39 40 41 42 43 44 45 46 47 48 49 50
520
ASUS43 KGRB 270700
RWRGRB

NORTH-CENTRAL AND NORTHEAST WISCONSIN REGIONAL WEATHER ROUNDUP
NATIONAL WEATHER SERVICE GREEN BAY WI
100 AM CST MON FEB 27 2017

WIZ005-009-010>012-018-019-270800-
NORTH CENTRAL WISCONSIN

CITY           SKY/WX    TMP DP  RH WIND       PRES   REMARKS
IRONWOOD       CLEAR     -3  -7  82 CALM      29.95R
MANITOWISH WTR NOT AVBL
ARBOR VITAE    NOT AVBL
EAGLE RIVER    NOT AVBL
LAND O LAKES   NOT AVBL
RHINELANDER    CLOUDY   N/A N/A N/A CALM      29.95R
PHILLIPS       NOT AVBL
ANTIGO         NOT AVBL
TOMAHAWK       NOT AVBL
MERRILL        NOT AVBL
$$

WIZ013-073-270800-
NORTHEAST WISCONSIN

CITY           SKY/WX    TMP DP  RH WIND       PRES   REMARKS
IRON MOUNTAIN  CLEAR      7   2  80 CALM      29.96R
MARINETTE      PTCLDY    24  12  60 N6        30.03R
$$

WIZ017-030-035>037-045-270800-
CENTRAL WISCONSIN

CITY           SKY/WX    TMP DP  RH WIND       PRES   REMARKS
MEDFORD        NOT AVBL
WAUSAU         CLOUDY    21  15  78 CALM      29.98R
MOSINEE        NOT AVBL
MARSHFIELD     CLOUDY    23  19  85 W3        29.97R
WISC RAPIDS    CLEAR     26  23  88 CALM      30.01R
STEVENS POINT  NOT AVBL
WAUPACA        NOT AVBL
SHAWANO        CLEAR     28  20  72 NE3       30.02R
CLINTONVILLE   NOT AVBL
WAUTOMA        CLEAR     27  22  81 W3        30.03R
$$

WIZ038-039-048-051-270800-
FOX VALLEY

CITY           SKY/WX    TMP DP  RH WIND       PRES   REMARKS
NWS GREEN BAY  CLEAR     29  21  72 SW6       30.02R
APPLETON       NOT AVBL
OSHKOSH        PTCLDY    28  20  71 W5        30.03R
FOND DU LAC    PTCLDY    27  19  72 SW5       30.03R
$$

WIZ022-050-052-270800-
EAST CENTRAL WISCONSIN

CITY           SKY/WX    TMP DP  RH WIND       PRES   REMARKS
EPHRAIM        NOT AVBL
WASHINGTON ISL NOT AVBL
STURGEON BAY   CLEAR     25  19  78 N8        30.03R
MANITOWOC      NOT AVBL
SHEBOYGAN      PTCLDY    30  21  69 W7        30.03R
$$

LMZ563-521-522-541>543-270800-
LAKESHORE

STATION/POSITION TIME  TEMP    WIND        PRES    VSBY  WAVE
                       AIR SEA DIR/SP/G                  HT/PER
                 (UTC) (F)     (DEG/KT/KT) (MB)    (MI)  (FT/S)
SHEBOYGAN LKSHOR 0600   33     240/  5/  6 1017.0R
KEWAUNEE LKSHORE 0630   29      CALM  /  1 1015.6R
NORTHPORT PIER   0640   26     320/ 12/ 16 1016.6R
SISTER BAY LKSHO 0550   26     350/ 14/ 16   N/A
CHAMBERS ISLAND  0640   25     310/ 11/ 14 1016.3R
MENOMINEE LKSHOR 0630   26     310/  9/ 12 1015.6R
$$




USA.gov is the U.S. government's official web portal to all federal, state and local government web resources and services.